, FL

(GMT )
Bonifay

Weather History for K1J0 - August, 2019

Change the Weather History Date:

Thursday, August 22, 2019

  Actual Average Record
Temperature  
Mean Temperature 81 °F -  
Max Temperature 91 °F - - ()
Min Temperature 71 °F - - ()
Cooling Degree Days 16    
Growing Degree Days 31 (Base 50)    
Moisture  
Dew Point 72 °F    
Average Humidity 85    
Maximum Humidity 97    
Minimum Humidity 53    
Precipitation  
Precipitation 0.00 in - - ()
Sea Level Pressure  
Sea Level Pressure 29.98 in    
Wind  
Wind Speed 1 mph (South)    
Max Wind Speed 9 mph    
Max Gust Speed -    
Visibility 6 miles    
Events Fog , Thunderstorm    
Averages and records for this station are not official NWS values.
T = Trace of Precipitation, MM = Missing Value Source: NWS Daily Summary

Daily Weather History Graph

Daily Weather History Graph

Search for Another Location

Airport or City:

Astronomy

Aug. 22, 2019 Rise Set
Actual Time 7:12 AM EDT 8:17 PM EDT
Civil Twilight 6:47 AM EDT 8:42 PM EDT
Nautical Twilight 6:17 AM EDT 9:12 PM EDT
Astronomical Twilight 5:47 AM EDT 9:42 PM EDT
Moon No Moon Rise 1:21 PM EDT (8/22)
Length of Visible Light 13h 54m
Length of Day
13h 04m
Waning Gibbous, 60% of the Moon is Illuminated
Aug 22
Waning Gibbous
Aug 23
Last Quarter
Aug 30
New
Sep 5
First Quarter
Sep 14
Full

Hourly Weather History & Observations

Time (EDT) Temp. Heat Index Dew Point Humidity Pressure Visibility Wind Dir Wind Speed Gust Speed Precip Events Conditions
12:58 AM 75.0 °F - 73.0 °F 94% 29.95 in 10.0 mi Calm Calm - N/A   Clear
1:58 AM 73.9 °F - 72.0 °F 93% 29.94 in 9.0 mi Calm Calm - N/A   Clear
2:58 AM 73.0 °F - 71.1 °F 93% 29.93 in 7.0 mi Calm Calm - N/A   Clear
3:25 AM 73.0 °F - 71.1 °F 93% 30.05 in 4.0 mi Calm Calm - N/A   Partly Cloudy
3:49 AM 73.0 °F - 71.1 °F 93% 30.04 in 8.0 mi Calm Calm - N/A   Mostly Cloudy
3:58 AM 72.0 °F - 71.1 °F 97% 29.92 in 8.0 mi Calm Calm - N/A   Mostly Cloudy
4:12 AM 72.0 °F - 70.0 °F 93% 30.04 in 2.0 mi Calm Calm - N/A   Overcast
4:23 AM 72.0 °F - 70.0 °F 93% 30.04 in 5.0 mi Calm Calm - N/A   Overcast
4:53 AM 71.1 °F - 70.0 °F 96% 30.04 in 0.8 mi Calm Calm - N/A   Mist
4:58 AM 72.0 °F - 70.0 °F 93% 29.92 in 0.5 mi Calm Calm - N/A Fog Fog
5:17 AM 72.0 °F - 71.1 °F 97% 30.05 in 1.2 mi Calm Calm - N/A   Overcast
5:35 AM 72.0 °F - 70.0 °F 93% 30.05 in 3.0 mi Calm Calm - N/A   Overcast
5:44 AM 71.1 °F - 70.0 °F 96% 30.05 in 2.5 mi Calm Calm - N/A   Overcast
5:52 AM 71.1 °F - 70.0 °F 96% 30.05 in 5.0 mi Calm Calm - N/A   Overcast
5:58 AM 72.0 °F - 70.0 °F 93% 29.93 in 5.0 mi Calm Calm - N/A   Mostly Cloudy
6:11 AM 71.1 °F - 70.0 °F 96% 30.06 in 7.0 mi Calm Calm - N/A   Scattered Clouds
6:56 AM 71.6 °F - 69.8 °F 94% 30.07 in 6.0 mi Calm Calm - N/A   Mostly Cloudy
6:58 AM 71.1 °F - 70.0 °F 96% 29.95 in 6.0 mi Calm Calm - N/A   Mostly Cloudy
7:21 AM 71.1 °F - 70.0 °F 96% 30.08 in 1.8 mi Calm Calm - N/A   Overcast
7:58 AM 72.0 °F - 71.1 °F 97% 29.96 in 0.2 mi Calm Calm - N/A Fog Fog
8:42 AM 73.9 °F - 73.0 °F 97% 30.09 in 2.0 mi Calm Calm - N/A   Overcast
8:47 AM 73.9 °F - 73.0 °F 97% 30.09 in 4.0 mi Calm Calm - N/A   Mostly Cloudy
8:58 AM 73.9 °F - 73.0 °F 97% 29.97 in 6.0 mi Calm Calm - N/A   Mostly Cloudy
9:03 AM 75.0 °F - 73.9 °F 96% 30.09 in 6.0 mi Calm Calm - N/A   Scattered Clouds
10:58 AM 84.9 °F 93.3 °F 75.0 °F 72% 29.96 in 10.0 mi SSE 4.6 mph - N/A   Partly Cloudy
11:58 AM 88.0 °F 95.6 °F 73.0 °F 61% 29.96 in 10.0 mi SSW 4.6 mph - N/A   Scattered Clouds
12:58 PM 90.0 °F 96.4 °F 71.1 °F 54% 29.95 in 10.0 mi SE 6.9 mph - N/A   Mostly Cloudy
1:58 PM 90.0 °F 96.4 °F 71.1 °F 54% 29.93 in 10.0 mi Calm Calm - N/A   Scattered Clouds
3:58 PM 91.0 °F 98.2 °F 72.0 °F 53% 29.88 in 10.0 mi Variable 6.9 mph - N/A   Clear
4:58 PM 88.0 °F 96.5 °F 73.9 °F 63% 29.88 in 10.0 mi WSW 9.2 mph - N/A   Clear
5:27 PM 88.0 °F 96.5 °F 73.9 °F 63% 29.99 in 10.0 mi Variable 5.8 mph - N/A Thunderstorm Thunderstorm
5:42 PM 89.1 °F 98.0 °F 73.9 °F 61% 29.99 in 10.0 mi SSE 5.8 mph - N/A   Clear
5:58 PM 88.0 °F 95.6 °F 73.0 °F 61% 29.86 in 10.0 mi South 5.8 mph - N/A   Clear
6:58 PM 86.0 °F 93.0 °F 73.0 °F 65% 29.85 in 10.0 mi SSW 5.8 mph - N/A   Clear
8:58 PM 81.0 °F 87.3 °F 75.9 °F 85% 29.90 in 10.0 mi Calm Calm - N/A   Mostly Cloudy
9:58 PM 80.1 °F 85.4 °F 75.9 °F 87% 29.91 in 10.0 mi Calm Calm - N/A   Clear
11:58 PM 79.0 °F - 75.9 °F 90% 29.92 in 10.0 mi Calm Calm - N/A   Clear